Other Public Products
Issued by NWS Grand Forks, ND

Home | Current Version | Previous Version | Graphics & Text | Print | Product List | Glossary On
Versions: 1 2 3 4 5 6 7 8 9 10 11 12 13 14 15 16 17 18 19 20 21 22 23 24 25 26 27 28 29 30 31 32 33 34 35 36 37 38 39 40 41 42 43 44 45 46 47 48 49 50
058
FPUS83 KFGF 032210
OPUFGF
PRAIRIE TO PINES WEATHER ROUNDUP
NATIONAL WEATHER SERVICE EASTERN NORTH DAKOTA/GRAND FORKS ND
400 PM CST SAT DEC 03 2016

 **SATELLITE DATA USED TO AUGMENT SKY COVER AT AUTOMATED STATIONS**
 *****  WEATHER ACROSS EASTERN NORTH DAKOTA  *****

CITY           SKY/WX    TMP DP  RH WIND       PRES   REMARKS
GRAND FORKS    CLOUDY    31  24  75 SE20G25   30.03F WCI  19
GRAND FORKS AF CLOUDY    30  24  79 S14G23    30.02F WCI  19
GRAND CITY NWS   N/A     30 N/A N/A S14         N/A  WCI  20
BUXTON         NOT AVBL
DEVILS LAKE    CLOUDY    31  27  85 SE17G26   29.91F WCI  19
FARGO          CLOUDY    33  25  72 S17G31    30.05F WCI  22
WAHPETON ARPT  CLOUDY    32  28  86 SE17G25   30.08S WCI  21
$$

 *****  WEATHER ACROSS CENTRAL AND WESTERN NORTH DAKOTA  *****

CITY           SKY/WX    TMP DP  RH WIND       PRES   REMARKS
JAMESTOWN      CLOUDY    32  28  85 SE16      29.93S WCI  21
BISMARCK       CLEAR     27  24  89 S8        29.87F WCI  19
MINOT          MOCLDY    28  23  81 S12       29.79S WCI  18
MINOT AFB      MOCLDY    25  21  84 S10       29.79S WCI  15
GARRISON         N/A     26  22  84 S16       29.81F WCI  14
WILLISTON      CLOUDY    33  27  78 SW10      29.75R WCI  25
DICKINSON      CLOUDY    30  26  85 SW10      29.77S WCI  21
HETTINGER      CLOUDY    31  25  78 CALM      29.83F
$$

 *****  OTHER OBSERVATIONS NORTHEAST NORTH DAKOTA  *****

CITY           SKY/WX    TMP DP  RH WIND       PRES   REMARKS
WALHALLA         N/A     28  28 100 S21G26    29.98F WCI  15
LANGDON        CLOUDY    28  28 100 S22G28    29.92S WCI  15
CAVALIER         N/A     28  25  86 S15G24    30.00F WCI  17
GRAFTON        CLOUDY    28  25  86 SE16G25   30.05S WCI  17
CANDO          MOCLDY    32  28  86 SE13      29.92S WCI  22
FORT TOTTEN      N/A     31  30  95 S14       29.95S WCI  21
ROLLA          CLOUDY    28  28 100 S17G24    29.86F WCI  16
RUGBY            N/A     28  27  93 S13       29.85S WCI  18
 ***** THE ABOVE OBSERVATIONS ARE NON NWS ARE NOT QUALITY
        CONTROLLED AND MAY MIS-REPORT RAIN FOR SNOW...
$$

 *****  OTHER OBSERVATIONS SOUTHEAST NORTH DAKOTA *****

CITY           SKY/WX    TMP DP  RH WIND       PRES   REMARKS
COOPERSTOWN    CLOUDY    30  28  93 SE21G28   29.96F WCI  17
VALLEY CITY    MIX PCPN  30  30 100 SE14G23   29.99F WCI  20
OAKES          NOT AVBL
GWINNER        CLOUDY    32  32 100 SE17      30.00F WCI  21
SHEYENNE NWR     N/A     31  26  83 S14       29.95S WCI  21
BUFFALO        NOT AVBL
WYNDMERE       NOT AVBL
 ***** THE ABOVE OBSERVATIONS ARE NON NWS ARE NOT QUALITY
       CONTROLLED AND MAY MIS-REPORT RAIN FOR SNOW...
$$

  *****  WEATHER ACROSS NORTHERN MINNESOTA  *****

CITY           SKY/WX    TMP DP  RH WIND       PRES   REMARKS
FLAG ISLAND    CLOUDY    27  21  80 SE17      30.09F WCI  14
WARROAD        CLOUDY    27  21  80 SE13      30.10F WCI  16
ROSEAU         CLOUDY    28  21  74 S12       30.09F WCI  18
HALLOCK        MOCLDY    28  25  86 S14       30.04F WCI  17
THF RVR FALLS  CLEAR     27  21  78 SE12      30.07F WCI  17
HALSTAD          N/A     31  25  77 S13         N/A  WCI  21
FOSSTON        CLEAR     27  19  74 SE8       30.07F WCI  18
BAUDETTE       CLOUDY    25  19  78 S10       30.13R WCI  15
WASKISH        CLOUDY    27  21  80 SE7       30.13S WCI  19
CROOKSTON      CLEAR     30  25  80 S13       30.07S WCI  20
$$
  *****  WEATHER ACROSS CENTRAL AND WEST MINNESOTA  *****

CITY           SKY/WX    TMP DP  RH WIND       PRES   REMARKS
BEMIDJI        CLEAR     24  18  79 SE9       30.09F WCI  14
PARK RAPIDS    PTCLDY    26  16  65 SE13      30.12R WCI  15
WADENA         PTCLDY    27  19  74 SE12      30.11S WCI  16
DETROIT LAKES  PTCLDY    30  23  74 SE17      30.09S WCI  18
MOORHEAD       CLOUDY    30  27  86 S17G24    30.07S WCI  18
FERGUS FALLS   MOCLDY    30  25  80 SE16G23   30.13S WCI  19
ELBOW LAKE     FLURRIES  30  27  87 E17       30.10F WCI  18
MORRIS MN      MOCLDY    32  28  86 SE17      30.10S WCI  21
STAPLES        CLOUDY    27  18  69 SE7       30.14S WCI  19
WHEATON        CLOUDY   N/A N/A N/A SE20G25   30.09S
$$
  *****  WEATHER ELSEWHERE ACROSS MINNESOTA  *****

CITY           SKY/WX    TMP DP  RH WIND       PRES   REMARKS
DULUTH         CLOUDY    29  22  75 SE7       30.17F WCI  22
INTRNTL FALLS  CLOUDY    27  19  72 S6        30.16R WCI  20
ELY            CLOUDY    27  25  93 SE3       30.18S
CLOQUET        CLOUDY    28  19  69 S3        30.18S
BRAINERD       CLOUDY    28  20  71 S12G18    30.18R WCI  18
HIBBING        CLOUDY    26  18  71 SE12      30.16F WCI  16
ALEXANDRIA     LGT SNOW  30  26  85 SE15      30.12S FOG     WCI  19
SAINT CLOUD    CLOUDY    30  22  72 SE12      30.19S WCI  20
MINNEAPOLIS    CLOUDY    31  21  66 SE8       30.23F WCI  23
$$

  *****  WEATHER ACROSS SOUTH DAKOTA  *****

CITY           SKY/WX    TMP DP  RH WIND       PRES   REMARKS
SIOUX FALLS    LGT SNOW  35  33  92 S16G22    30.09F FOG
BROOKINGS      LGT SNOW  33  31  92 S16       30.05F FOG     WCI  23
WATERTOWN      LGT SNOW  32  31  96 S13       30.02S FOG     WCI  22
HURON          MOCLDY    36  33  89 SE17G23   30.00S
SISSETON         N/A     33  29  85 S15       30.04S WCI  23
ABERDEEN       CLOUDY    35  32  88 S16       29.98S
MITCHELL       CLOUDY    37  34  89 S18       30.01F
PIERRE         CLEAR     37  27  67 SW7       29.89F
MOBRIDGE       PTCLDY    36  28  73 SW8       29.86F
RAPID CITY     CLOUDY    41  23  48 NW3       29.88S
$$

  *****  SOME WEATHER IN NEARBY STATES *****

CITY           SKY/WX    TMP DP  RH WIND       PRES   REMARKS
GLASGOW MT     CLOUDY    36  33  89 W17       29.76S
GREAT FALLS MT SUNNY     40  23  50 W15       29.89S
CHEYENNE WY    CLOUDY    33  10  38 W30G40    29.93S WCI  19
SCOTTSBLUFF NE MOSUNNY   42  13  30 W21G31    29.95R
OMAHA NE       LGT SNOW  33  29  85 SE6       30.19F VSB 1
DES MOINES IA  LGT RAIN  41  31  67 S7        30.24S
DAVENPORT IA   CLOUDY    37  26  64 S6        30.30F
CHICAGO IL     MOCLDY    33  23  66 W6        30.32F
EAU CLAIRE WI  CLOUDY    31  21  66 S7        30.26S WCI  24
LA CROSSE WI   CLOUDY    35  23  61 S6        30.28R
$$

  *****  SOME NATIONAL WEATHER *****

CITY           SKY/WX    TMP DP  RH WIND       PRES   REMARKS
LA GUARDIA NY  MOCLDY    47  29  49 NW15G30   30.08R
RALEIGH NC     CLOUDY    49  27  42 N5        30.24S
ATLANTA GA     LGT RAIN  54  33  45 N9        30.22R
NEW ORLEANS LA CLOUDY    62  56  80 E14G29    30.01R
OKLAHOMA CITY  CLOUDY    45  42  89 E8        30.06S
ALBUQUERQUE NM MOSUNNY   47  27  45 N8        29.98F
SALT LAKE CITY CLOUDY    35  20  54 S6        30.26S
LOS ANGELES CA SUNNY     64  34  32 W10       30.06F
BOISE ID       PTSUNNY   44  28  53 W3        30.23F
SEATTLE WA     CLOUDY    48  41  76 S13       30.26F
$$

*** WEATHER ACROSS MANITOBA...SASKATCHEWAN AND ONTARIO ***
                ***ONTARIO***

CITY           SKY/WX    TMP DP  RH WIND       PRES   REMARKS
GERALDTON      CLOUDY    21  18  86 CALM      30.24R
THUNDER BAY    MOCLDY    32  23  69 CALM      30.25S
SIOUX LOOKOUT  FRZ DRZL  23  19  86 SW8       30.16S WCI  14
TORONTO        CLOUDY    39  27  60 NW12      30.21S
BIG TROUT LK   CLOUDY    21  19  93 S13       30.18S WCI   9
PICKLE LAKE    FRZ DRZL  21  19  93 SE7       30.17S WCI  13
DRYDEN         CLOUDY    23  21  93 S6        30.14S WCI  16
KENORA         NOT AVBL
$$
                *** MANITOBA***

CITY           SKY/WX    TMP DP  RH WIND       PRES   REMARKS
BRANDON        CLOUDY    30  27  86 S18G26    29.84F WCI  18
DAUPHIN        CLOUDY    32  27  80 S8        29.81F WCI  25
ISLAND LAKE    FLURRIES  14  10  85 SE14      30.10S WCI  -1
PILOT MOUND      N/A     28  27  93 S22G28      N/A  WCI  15
THE PAS        FLURRIES  28  25  86 SE17G23   29.78F WCI  16
THOMPSON       CLOUDY    19  16  86 E6        29.98S WCI  11
WINNIPEG       CLOUDY    28  25  86 S25G31    30.02S WCI  14
LYNN LAKE      FLURRIES  23  23 100 SE12      29.83F WCI  12
CHURCHILL      MOCLDY    14  12  92 S7        30.08S WCI   4
GILLAM         LGT SNOW  10   7  85 SE6       30.10S WCI   1
$$
                ***SASKATCHEWAN***

CITY           SKY/WX    TMP DP  RH WIND       PRES   REMARKS
ESTEVAN        LGT SNOW  30  28  93 S12G18    29.72R VSB 3/4 WCI  21
KINDERSLEY     SNOW      30  28  93 NW6       29.72R VSB 1/2 WCI  24
LLOYDMINSTER   MOCLDY    27  27 100 SW5       29.68S FOG     WCI  21
PRINCE ALBERT  CLOUDY    28  25  86 NE2       29.71R
REGINA         MOCLDY    30  28  93 W16       29.65R WCI  19
YORKTON        LGT SNOW  25  23  93 SE13      29.70R WCC1F1C2F2C3F3C4F4C5F5C6F6C7F7C8F8C9F9CaFaCbFbCcFcCdFdCe!



USA.gov is the U.S. government's official web portal to all federal, state and local government web resources and services.